SWA2705 KMDW-KLGA

Flight info

Callsign SWA2705
Flight time 1h 33m
Altitude 37000
Route LEWKE ZIINE Q186 WEVEL ETG MIP4
Aircraft B737/M-SDE2E3FGHIRWXY/LB1

Departure

Time 2026-05-01 07:47
Airport Chicago Midway International Airport (KMDW)

Arrival

Time 2026-05-01 09:21
Airport LaGuardia Airport (KLGA)
Time Latitude Longitude Altitude Speed Heading
2026-05-01 07:27 41.78931 -87.74256 628 ft 0 kts 90°
2026-05-01 07:37 41.78931 -87.74276 628 ft 2 kts 90°
2026-05-01 07:37 41.78931 -87.74297 628 ft 2 kts 90°
2026-05-01 07:37 41.78932 -87.74318 628 ft 2 kts 106°
2026-05-01 07:38 41.78938 -87.74338 628 ft 2 kts 124°
2026-05-01 07:38 41.78947 -87.74353 628 ft 1 kts 137°
2026-05-01 07:38 41.78949 -87.74356 628 ft 0 kts 137°
2026-05-01 07:41 41.78940 -87.74355 628 ft 3 kts 201°
2026-05-01 07:42 41.78946 -87.74399 628 ft 8 kts 293°
2026-05-01 07:42 41.78953 -87.74483 628 ft 11 kts 239°
2026-05-01 07:42 41.78884 -87.74572 628 ft 14 kts 222°
2026-05-01 07:42 41.78789 -87.74685 628 ft 22 kts 222°
2026-05-01 07:43 41.78666 -87.74777 628 ft 19 kts 170°
2026-05-01 07:43 41.78580 -87.74851 628 ft 16 kts 221°
2026-05-01 07:43 41.78395 -87.75073 628 ft 20 kts 221°
2026-05-01 07:44 41.78211 -87.75322 628 ft 17 kts 232°
2026-05-01 07:44 41.78047 -87.75528 628 ft 3 kts 221°
2026-05-01 07:45 41.78028 -87.75549 628 ft 5 kts 221°
2026-05-01 07:45 41.77997 -87.75586 628 ft 9 kts 221°
2026-05-01 07:45 41.77931 -87.75662 628 ft 16 kts 222°
2026-05-01 07:45 41.77921 -87.75812 628 ft 16 kts 273°
2026-05-01 07:46 41.77958 -87.75888 628 ft 2 kts 38°
2026-05-01 07:46 41.77959 -87.75888 628 ft 0 kts 38°
2026-05-01 07:46 41.78095 -87.75721 628 ft 67 kts 43°
2026-05-01 07:47 41.78626 -87.75047 629 ft 140 kts 43°
2026-05-01 07:47 41.79392 -87.74075 1053 ft 164 kts 43°
2026-05-01 07:47 41.80284 -87.72964 1881 ft 174 kts 43°
2026-05-01 07:47 41.81122 -87.71910 2984 ft 160 kts 44°
2026-05-01 07:48 41.81880 -87.68964 4113 ft 206 kts 95°
2026-05-01 07:48 41.81723 -87.66925 4463 ft 235 kts 95°
2026-05-01 07:48 41.81546 -87.64616 4797 ft 261 kts 97°
2026-05-01 07:49 41.81346 -87.62160 5521 ft 267 kts 99°
2026-05-01 07:49 41.80917 -87.57164 7052 ft 279 kts 100°
2026-05-01 07:49 41.80678 -87.54472 7580 ft 301 kts 99°
2026-05-01 07:50 41.80428 -87.51688 8564 ft 305 kts 99°
2026-05-01 07:50 41.79931 -87.45930 10570 ft 313 kts 99°
2026-05-01 07:50 41.79668 -87.42928 11300 ft 330 kts 100°
2026-05-01 07:51 41.79383 -87.39766 11753 ft 354 kts 99°
2026-05-01 07:51 41.79073 -87.36411 12310 ft 372 kts 100°
2026-05-01 07:51 41.78750 -87.32953 13094 ft 382 kts 100°
2026-05-01 07:52 41.78065 -87.25714 14827 ft 396 kts 99°
2026-05-01 07:52 41.77720 -87.22059 15637 ft 404 kts 100°
2026-05-01 07:52 41.77360 -87.18322 16422 ft 412 kts 99°
2026-05-01 07:53 41.76607 -87.10530 17891 ft 430 kts 99°
2026-05-01 07:53 41.76255 -87.06542 18667 ft 436 kts 96°
2026-05-01 07:53 41.76136 -87.02447 19450 ft 443 kts 91°
2026-05-01 07:53 41.76193 -86.98250 20210 ft 449 kts 89°
2026-05-01 07:54 41.76353 -86.89834 21632 ft 460 kts 89°
2026-05-01 07:55 41.76529 -86.76698 23651 ft 475 kts 89°
2026-05-01 07:55 41.76670 -86.67805 24952 ft 482 kts 88°
2026-05-01 07:56 41.76825 -86.54241 26777 ft 491 kts 89°
2026-05-01 07:56 41.76898 -86.45043 27806 ft 498 kts 89°
2026-05-01 07:57 41.76932 -86.40397 28308 ft 501 kts 89°
2026-05-01 07:57 41.76998 -86.30972 29315 ft 505 kts 89°
2026-05-01 07:58 41.77077 -86.23451 30050 ft 509 kts 89°
2026-05-01 07:58 41.77171 -86.13951 30921 ft 512 kts 89°
2026-05-01 07:59 41.77254 -86.04438 32052 ft 507 kts 88°
2026-05-01 07:59 41.77327 -85.95100 33206 ft 500 kts 88°
2026-05-01 08:00 41.77492 -85.76694 35237 ft 488 kts 88°
2026-05-01 08:01 41.77608 -85.63125 36548 ft 481 kts 88°
2026-05-01 08:01 41.77657 -85.58709 36930 ft 480 kts 88°
2026-05-01 08:02 41.77737 -85.45170 37023 ft 483 kts 89°
2026-05-01 08:03 41.77775 -85.31841 37024 ft 479 kts 89°
2026-05-01 08:03 41.77803 -85.19789 37024 ft 483 kts 89°
2026-05-01 08:04 41.77830 -85.01825 37024 ft 483 kts 89°
2026-05-01 08:05 41.77829 -84.88354 37023 ft 482 kts 89°
2026-05-01 08:06 41.77881 -84.74849 37024 ft 482 kts 89°
2026-05-01 08:07 41.77852 -84.56904 37028 ft 482 kts 89°
2026-05-01 08:08 41.77804 -84.43476 37029 ft 481 kts 89°
2026-05-01 08:09 41.77699 -84.25599 37034 ft 481 kts 89°
2026-05-01 08:09 41.77632 -84.16669 37037 ft 481 kts 89°
2026-05-01 08:10 41.77575 -84.09917 41377 ft 335 kts 91°
2026-05-01 08:10 41.76945 -84.02617 37941 ft 446 kts 98°
2026-05-01 08:11 41.75861 -83.94184 37060 ft 470 kts 99°
2026-05-01 08:11 41.75034 -83.84980 32663 ft 534 kts 85°
2026-05-01 08:12 41.77017 -83.75740 32853 ft 506 kts 67°
2026-05-01 08:12 41.77850 -83.71196 33737 ft 499 kts 81°
2026-05-01 08:12 41.77163 -83.62014 34855 ft 494 kts 103°
2026-05-01 08:13 41.76652 -83.57503 35300 ft 491 kts 90°
2026-05-01 08:13 41.76686 -83.52956 35767 ft 488 kts 89°
2026-05-01 08:13 41.76064 -83.43901 36643 ft 484 kts 97°
2026-05-01 08:14 41.75612 -83.39436 36982 ft 484 kts 97°
2026-05-01 08:14 41.75168 -83.35034 37035 ft 485 kts 97°
2026-05-01 08:14 41.74276 -83.26101 37044 ft 482 kts 97°
2026-05-01 08:15 41.73006 -83.12751 37030 ft 482 kts 96°
2026-05-01 08:16 41.72135 -83.03885 37022 ft 482 kts 96°
2026-05-01 08:16 41.71236 -82.94967 37017 ft 482 kts 96°
2026-05-01 08:17 41.70333 -82.86093 37004 ft 482 kts 96°
2026-05-01 08:17 41.69427 -82.77198 36999 ft 482 kts 96°
2026-05-01 08:18 41.68519 -82.68331 36995 ft 482 kts 96°
2026-05-01 08:19 41.66654 -82.50531 36995 ft 482 kts 96°
2026-05-01 08:19 41.65703 -82.41662 37003 ft 482 kts 96°
2026-05-01 08:20 41.64744 -82.32798 37007 ft 482 kts 96°
2026-05-01 08:20 41.63779 -82.23952 37012 ft 482 kts 97°
2026-05-01 08:21 41.62808 -82.15099 37018 ft 482 kts 96°
2026-05-01 08:21 41.61874 -82.06242 37011 ft 482 kts 96°
2026-05-01 08:22 41.60916 -81.97376 37001 ft 484 kts 97°
2026-05-01 08:22 41.59939 -81.88485 36994 ft 484 kts 97°
2026-05-01 08:23 41.58969 -81.79566 36994 ft 484 kts 96°
2026-05-01 08:23 41.57980 -81.70633 36999 ft 485 kts 97°
2026-05-01 08:24 41.56966 -81.61715 37000 ft 485 kts 97°
2026-05-01 08:24 41.55943 -81.52828 37002 ft 485 kts 97°
2026-05-01 08:25 41.54915 -81.43923 37012 ft 485 kts 97°
2026-05-01 08:25 41.53993 -81.35041 37013 ft 484 kts 95°
2026-05-01 08:26 41.53183 -81.26055 37007 ft 485 kts 95°
2026-05-01 08:26 41.52359 -81.17140 37004 ft 485 kts 95°
2026-05-01 08:27 41.51520 -81.08214 37002 ft 485 kts 95°
2026-05-01 08:27 41.50673 -80.99307 36996 ft 485 kts 96°
2026-05-01 08:28 41.49848 -80.90397 36995 ft 485 kts 95°
2026-05-01 08:28 41.49016 -80.81431 36994 ft 485 kts 96°
2026-05-01 08:29 41.48170 -80.72523 36994 ft 485 kts 96°
2026-05-01 08:29 41.47313 -80.63625 36994 ft 485 kts 96°
2026-05-01 08:30 41.46446 -80.54722 36996 ft 484 kts 96°
2026-05-01 08:30 41.45595 -80.45778 36995 ft 484 kts 96°
2026-05-01 08:31 41.44716 -80.36912 36999 ft 483 kts 96°
2026-05-01 08:31 41.43821 -80.28052 37004 ft 483 kts 97°
2026-05-01 08:32 41.42918 -80.19209 37003 ft 482 kts 97°
2026-05-01 08:32 41.42015 -80.10354 37010 ft 483 kts 96°
2026-05-01 08:33 41.41154 -80.01444 37014 ft 483 kts 96°
2026-05-01 08:33 41.40286 -79.92594 37007 ft 482 kts 96°
2026-05-01 08:34 41.39410 -79.83748 36996 ft 483 kts 96°
2026-05-01 08:34 41.38527 -79.74902 36994 ft 482 kts 97°
2026-05-01 08:35 41.37639 -79.66062 36994 ft 483 kts 97°
2026-05-01 08:35 41.36786 -79.57212 36994 ft 483 kts 96°
2026-05-01 08:36 41.35908 -79.48328 36994 ft 483 kts 97°
2026-05-01 08:36 41.35018 -79.39482 36994 ft 482 kts 97°
2026-05-01 08:37 41.34119 -79.30649 36994 ft 482 kts 97°
2026-05-01 08:37 41.33237 -79.21811 36994 ft 482 kts 97°
2026-05-01 08:38 41.32329 -79.13014 36994 ft 480 kts 97°
2026-05-01 08:38 41.31395 -79.04167 36994 ft 481 kts 97°
2026-05-01 08:39 41.30460 -78.95394 36996 ft 479 kts 97°
2026-05-01 08:39 41.29528 -78.86661 36997 ft 478 kts 97°
2026-05-01 08:40 41.28115 -78.73537 36998 ft 478 kts 98°
2026-05-01 08:40 41.27145 -78.64830 37006 ft 477 kts 98°
2026-05-01 08:41 41.26165 -78.56118 37004 ft 477 kts 98°
2026-05-01 08:41 41.25177 -78.47368 37011 ft 476 kts 97°
2026-05-01 08:42 41.24228 -78.38665 37016 ft 476 kts 97°
2026-05-01 08:42 41.23265 -78.29984 37013 ft 476 kts 98°
2026-05-01 08:43 41.22281 -78.21233 37018 ft 477 kts 97°
2026-05-01 08:43 41.21291 -78.12520 37015 ft 476 kts 98°
2026-05-01 08:44 41.20201 -78.03803 37014 ft 476 kts 98°
2026-05-01 08:44 41.19105 -77.95121 37022 ft 480 kts 98°
2026-05-01 08:45 41.17996 -77.86393 37019 ft 479 kts 99°
2026-05-01 08:45 41.16885 -77.77693 37015 ft 480 kts 98°
2026-05-01 08:46 41.15763 -77.68956 37011 ft 481 kts 98°
2026-05-01 08:46 41.14682 -77.60224 37009 ft 481 kts 98°
2026-05-01 08:47 41.13577 -77.51489 37002 ft 482 kts 98°
2026-05-01 08:47 41.12639 -77.44161 36999 ft 482 kts 99°
2026-05-01 08:48 41.11507 -77.35401 36997 ft 482 kts 99°
2026-05-01 08:48 41.10368 -77.26661 37001 ft 482 kts 99°
2026-05-01 08:49 41.09216 -77.17881 36999 ft 482 kts 99°
2026-05-01 08:49 41.08062 -77.09136 37001 ft 482 kts 99°
2026-05-01 08:50 41.06930 -77.00398 37006 ft 482 kts 99°
2026-05-01 08:50 41.05763 -76.91666 37003 ft 482 kts 99°
2026-05-01 08:51 41.04573 -76.82889 37007 ft 482 kts 99°
2026-05-01 08:51 41.03383 -76.74171 37007 ft 482 kts 99°
2026-05-01 08:52 41.02118 -76.65506 37004 ft 482 kts 103°
2026-05-01 08:52 41.00138 -76.56995 37005 ft 483 kts 108°
2026-05-01 08:53 40.98059 -76.48501 37004 ft 483 kts 108°
2026-05-01 08:53 40.96003 -76.40069 37004 ft 483 kts 108°
2026-05-01 08:54 40.93945 -76.31619 36996 ft 483 kts 108°
2026-05-01 08:54 40.91893 -76.23192 36995 ft 482 kts 108°
2026-05-01 08:55 40.89829 -76.14750 36994 ft 482 kts 107°
2026-05-01 08:55 40.87797 -76.06326 36993 ft 482 kts 108°
2026-05-01 08:56 40.86073 -75.99302 36973 ft 482 kts 108°
2026-05-01 08:56 40.83664 -75.89560 35636 ft 480 kts 108°
2026-05-01 08:57 40.82611 -75.85320 34885 ft 482 kts 108°
2026-05-01 08:57 40.81563 -75.81102 34127 ft 484 kts 108°
2026-05-01 08:57 40.80515 -75.76887 33416 ft 485 kts 109°
2026-05-01 08:57 40.79474 -75.72688 32846 ft 482 kts 109°
2026-05-01 08:58 40.78431 -75.68494 32267 ft 480 kts 109°
2026-05-01 08:58 40.77378 -75.64277 31706 ft 477 kts 109°
2026-05-01 08:58 40.76330 -75.60093 31137 ft 475 kts 110°
2026-05-01 08:58 40.75303 -75.56021 30586 ft 473 kts 109°
2026-05-01 08:59 40.74276 -75.51891 30031 ft 471 kts 110°
2026-05-01 08:59 40.73247 -75.47781 29478 ft 469 kts 110°
2026-05-01 08:59 40.72384 -75.44283 28998 ft 467 kts 109°
2026-05-01 08:59 40.71517 -75.40152 28418 ft 466 kts 105°
2026-05-01 09:00 40.70749 -75.36030 27846 ft 464 kts 105°
2026-05-01 09:00 40.69960 -75.31919 27271 ft 463 kts 106°
2026-05-01 09:00 40.69154 -75.27815 26696 ft 461 kts 106°
2026-05-01 09:00 40.68349 -75.23769 26134 ft 459 kts 107°
2026-05-01 09:01 40.67510 -75.19703 25571 ft 456 kts 110°
2026-05-01 09:01 40.66354 -75.15881 25034 ft 450 kts 120°
2026-05-01 09:01 40.64790 -75.12338 24436 ft 443 kts 129°
2026-05-01 09:01 40.62890 -75.09207 23876 ft 434 kts 139°
2026-05-01 09:02 40.60732 -75.06405 23305 ft 429 kts 143°
2026-05-01 09:02 40.60039 -75.05504 23122 ft 430 kts 142°
2026-05-01 09:02 40.56866 -75.00354 22170 ft 438 kts 129°
2026-05-01 09:02 40.55366 -74.96881 21603 ft 442 kts 120°
2026-05-01 09:03 40.54233 -74.93105 21042 ft 442 kts 112°
2026-05-01 09:03 40.53263 -74.89283 20487 ft 440 kts 112°
2026-05-01 09:03 40.52250 -74.85514 19924 ft 436 kts 114°
2026-05-01 09:03 40.51155 -74.81835 19378 ft 433 kts 115°
2026-05-01 09:04 40.50055 -74.78167 18816 ft 430 kts 115°
2026-05-01 09:04 40.48969 -74.74556 18253 ft 427 kts 115°
2026-05-01 09:04 40.47872 -74.70930 17715 ft 424 kts 111°
2026-05-01 09:04 40.46788 -74.67366 17151 ft 421 kts 109°
2026-05-01 09:05 40.45728 -74.63808 16596 ft 418 kts 110°
2026-05-01 09:05 40.44666 -74.60282 16048 ft 410 kts 110°
2026-05-01 09:05 40.43747 -74.56837 15509 ft 397 kts 101°
2026-05-01 09:05 40.43479 -74.54258 15128 ft 385 kts 89°
2026-05-01 09:06 40.43696 -74.50848 14515 ft 375 kts 75°
2026-05-01 09:06 40.44374 -74.47584 13999 ft 370 kts 67°
2026-05-01 09:06 40.45263 -74.44374 13473 ft 365 kts 63°
2026-05-01 09:06 40.46137 -74.41367 13080 ft 354 kts 62°
2026-05-01 09:07 40.47001 -74.38323 12555 ft 348 kts 63°
2026-05-01 09:07 40.47812 -74.35398 12307 ft 334 kts 63°
2026-05-01 09:07 40.48570 -74.32628 12167 ft 319 kts 63°
2026-05-01 09:07 40.49316 -74.29880 11778 ft 313 kts 63°
2026-05-01 09:08 40.49984 -74.27199 11445 ft 311 kts 70°
2026-05-01 09:08 40.50094 -74.24388 11205 ft 312 kts 87°
2026-05-01 09:08 40.49856 -74.21572 10809 ft 310 kts 90°
2026-05-01 09:08 40.49611 -74.18733 10332 ft 310 kts 90°
2026-05-01 09:09 40.49385 -74.15918 9899 ft 308 kts 90°
2026-05-01 09:09 40.49174 -74.13128 9524 ft 304 kts 90°
2026-05-01 09:09 40.48954 -74.10436 9300 ft 294 kts 90°
2026-05-01 09:09 40.48735 -74.07783 8999 ft 288 kts 90°
2026-05-01 09:10 40.48520 -74.05147 8604 ft 286 kts 90°
2026-05-01 09:10 40.48327 -74.02586 8204 ft 285 kts 90°
2026-05-01 09:10 40.48139 -74.00007 7823 ft 283 kts 90°
2026-05-01 09:10 40.47944 -73.97429 7448 ft 281 kts 90°
2026-05-01 09:11 40.47754 -73.94877 7066 ft 279 kts 90°
2026-05-01 09:11 40.47572 -73.92389 6698 ft 277 kts 90°
2026-05-01 09:11 40.47389 -73.89838 6308 ft 276 kts 90°
2026-05-01 09:11 40.47215 -73.87353 5927 ft 275 kts 90°
2026-05-01 09:12 40.47046 -73.84857 5545 ft 273 kts 90°
2026-05-01 09:12 40.47218 -73.82442 5122 ft 261 kts 63°
2026-05-01 09:12 40.48277 -73.80673 4947 ft 243 kts 32°
2026-05-01 09:12 40.49763 -73.79619 4956 ft 237 kts 19°
2026-05-01 09:13 40.51249 -73.78722 4957 ft 239 kts 20°
2026-05-01 09:13 40.52765 -73.77803 4947 ft 240 kts 20°
2026-05-01 09:13 40.54308 -73.76865 4657 ft 245 kts 20°
2026-05-01 09:13 40.55866 -73.75917 4148 ft 247 kts 20°
2026-05-01 09:14 40.57424 -73.74970 3746 ft 245 kts 20°
2026-05-01 09:14 40.58963 -73.74032 3460 ft 239 kts 20°
2026-05-01 09:14 40.60429 -73.73139 3327 ft 227 kts 20°
2026-05-01 09:14 40.61823 -73.72290 3202 ft 215 kts 20°
2026-05-01 09:15 40.63141 -73.71487 3086 ft 205 kts 20°
2026-05-01 09:15 40.64413 -73.70711 2960 ft 196 kts 19°
2026-05-01 09:15 40.65524 -73.70034 2876 ft 182 kts 18°
2026-05-01 09:15 40.66624 -73.69364 2773 ft 169 kts 18°
2026-05-01 09:16 40.67691 -73.68878 2660 ft 157 kts 358°
2026-05-01 09:16 40.68677 -73.69308 2596 ft 147 kts 325°
2026-05-01 09:16 40.69393 -73.70255 2516 ft 148 kts 311°
2026-05-01 09:17 40.70551 -73.72468 2334 ft 142 kts 306°
2026-05-01 09:17 40.71088 -73.73546 2169 ft 142 kts 304°
2026-05-01 09:17 40.72157 -73.75713 1844 ft 132 kts 304°
2026-05-01 09:18 40.72635 -73.76660 1652 ft 118 kts 305°
2026-05-01 09:18 40.73511 -73.78392 1325 ft 111 kts 304°
2026-05-01 09:19 40.74381 -73.80116 1060 ft 114 kts 304°
2026-05-01 09:19 40.74826 -73.80996 909 ft 115 kts 304°
2026-05-01 09:19 40.75267 -73.81871 756 ft 116 kts 304°
2026-05-01 09:20 40.76178 -73.83676 438 ft 123 kts 303°
2026-05-01 09:20 40.77138 -73.85593 169 ft 122 kts 302°
2026-05-01 09:21 40.77702 -73.86763 32 ft 97 kts 303°
2026-05-01 09:21 40.77926 -73.87210 30 ft 1 kts 303°